Regional Weather Roundup
Issued by NWS

Home | Current Version | Previous Version | Graphics & Text | Print | Product List | Glossary On
Versions: 1 2 3 4 5 6 7 8 9 10 11 12 13 14 15 16 17 18 19 20 21 22 23 24 25 26 27 28 29 30 31 32 33 34 35 36 37 38 39 40 41 42 43 44 45 46 47 48 49 50
000
ASUS43 KMPX 010810
RWRMN
WEATHER ROUNDUP FOR MINNESOTA
NATIONAL WEATHER SERVICE TWIN CITIES/CHANHASSEN MN
200 AM CST WED MAR 01 2017


NOTE: "FAIR" INDICATES FEW OR NO CLOUDS BELOW 12,000 FEET WITH NO
SIGNIFICANT WEATHER AND/OR OBSTRUCTIONS TO VISIBILITY. N/A MEANS
CURRENT SKY AND/OR WEATHER CONDITIONS ARE NOT AVAILABLE.

MNZ060>063-068>070-010900-
   Twin Cities Metro

CITY           SKY/WX    TMP DP  RH WIND       PRES   REMARKS
TWIN CITIES    CLOUDY    31  23  72 N14       29.73R WCI  21
ST PAUL        CLOUDY    31  26  82 N9        29.74R WCI  23
CRYSTAL        CLOUDY    30  22  72 N12       29.73S WCI  20
BLAINE         CLOUDY    30  27  86 N14       29.73S WCI  20
LAKEVILLE      CLOUDY    28  27  93 N8        29.71S WCI  20
EDEN PRAIRIE   CLOUDY    31  24  75 N12       29.72R WCI  22
SOUTH ST PAUL  CLOUDY    32  26  77 N12       29.72R WCI  23
LAKE ELMO      CLOUDY    32  27  80 N7        29.72R WCI  26
$$
MNZ001>005-007-008-013>017-022>024-027-028-010900-
   Northwest Minnesota

CITY           SKY/WX    TMP DP  RH WIND       PRES   REMARKS
BEMIDJI        CLOUDY    18  10  70 N3        29.85S
HALLOCK        CLOUDY     5   0  78 N3        29.93S
ROSEAU         CLOUDY     7   0  72 NE7       29.92S WCI  -5
WARROAD        CLOUDY    10   1  67 NE6       29.92S WCI   1
THIEF RVR FALL CLOUDY    16   6  65 NE7       29.90R WCI   6
CROOKSTON      CLOUDY    14  10  85 NW5       29.92R WCI   6
FOSSTON        PTCLDY    18  10  73 NE5       29.87S WCI  11
DETROIT LAKES  CLOUDY    27  19  74 CALM      29.85S
MOORHEAD       CLOUDY    19  16  86 N12       29.89S WCI   7
PARK RAPIDS    PTCLDY    23  13  65 N6        29.82R WCI  16
MAHNOMEN       FAIR      20  16  84 NE3       29.86R
$$
MNZ006-009>011-018-025>026-010900-
   North Central Minnesota

CITY           SKY/WX    TMP DP  RH WIND       PRES   REMARKS
BAUDETTE       CLOUDY    12   1  61 NE3       29.90S
FLAG ISLAND    CLEAR      9   1  72 N3        29.93S
INTL FALLS     CLEAR     13   1  59 NE7       29.90R WCI   3
WASKISH        CLOUDY    16   7  67 NE5       29.89R WCI   9
BIG FORK       CLOUDY    16  10  79 CALM      29.86R
LONGVILLE      CLOUDY    27  19  74 N3        29.83S
GRAND RAPIDS   CLOUDY    23  16  74 VRB7      29.85R WCI  15
CRANE LAKE     PTCLDY    10   3  72 CALM      29.92S
ORR            CLOUDY    16   1  53 CALM      29.84S
COOK           CLOUDY    16   3  57 CALM      29.86S
WALKER         CLOUDY    22  15  74 N3        29.84S
$$
MNZ012-019>021-037-010900-
   Northeast Minnesota

CITY           SKY/WX    TMP DP  RH WIND       PRES   REMARKS
DULUTH         CLOUDY    23  17  78 NE8       29.79S WCI  14
ELY            CLOUDY    12   3  67 NE6       29.84F WCI   3
HIBBING        CLOUDY    19   8  62 NE5       29.83R WCI  12
EVELETH        CLOUDY    19   4  54 NE5       29.84S WCI  12
DULUTH HARBOR  CLOUDY    28  23  80 NE22      29.84R WCI  15
TWO HARBORS    CLOUDY    25  16  68 NE6       29.80S WCI  18
SILVER BAY     CLOUDY    21  12  68 N7        29.81S WCI  13
GRAND MARAIS     N/A     19   5  54 NE9       29.88S WCI   8
G MARAIS ARPRT CLOUDY    10   0  61 N14       29.79F WCI  -5
$$
MNZ029>031-032-039>041-046>048-054>057-064-010900-
   West Central Minnesota

CITY           SKY/WX    TMP DP  RH WIND       PRES   REMARKS
FERGUS FALLS   CLOUDY    25  19  80 N5        29.89R WCI  19
WHEATON        CLOUDY    23  19  86 NW12      29.89R WCI  12
MORRIS         CLOUDY    28  27  93 N12       29.82R WCI  18
ALEXANDRIA     MOCLDY    27  21  78 N8        29.81R WCI  19
ELBOW LAKE     MOCLDY    25  21  85 N5        29.84R WCI  19
WADENA         CLOUDY    23  18  80 N7        29.81F WCI  15
GLENWOOD       CLOUDY    28  25  86 N7        29.81R WCI  21
APPLETON       CLOUDY    30  27  86 N10G16    29.83R WCI  21
BENSON         CLOUDY    32  27  80 N8        29.83R WCI  25
ORTONVILLE     CLOUDY    23  19  86 NW10G16   29.84S WCI  12
MADISON        CLOUDY    28  27  93 NW14      29.83S WCI  17
WILLMAR        CLOUDY    32  28  86 N8        29.79S WCI  25
$$
MNZ033>034-036-042>043-049>051-058-059-010900-
   Central Minnesota

CITY           SKY/WX    TMP DP  RH WIND       PRES   REMARKS
ST CLOUD       CLOUDY    29  26  89 N8        29.78S WCI  21
SAUK CENTRE    CLOUDY    29  24  82 NE6       29.80R WCI  23
PAYNESVILLE    CLOUDY    31  31 100 N8        29.79R WCI  23
AITKIN         CLOUDY    28  19  69 N7        29.80R WCI  21
PINE RIVER     CLOUDY    27  21  80 N7        29.85S WCI  19
BRAINERD       CLOUDY    28  22  78 NE10      29.81R WCI  19
STAPLES        CLOUDY    25  19  80 N6        29.81S WCI  18
LONG PRAIRIE   CLOUDY    30  25  80 N5        29.80R WCI  25
LITTLE FALLS   CLOUDY    30  25  80 NE3       29.80S
LITCHFIELD     CLOUDY    30  27  86 N14       29.78R WCI  20
BUFFALO        CLOUDY    29  24  82 N9        29.76F WCI  20
MAPLE LAKE     CLOUDY    30  26  86 N10G17    29.77S WCI  21
HUTCHINSON     CLOUDY    31  27  84 N12G20    29.76F WCI  22
$$
MNZ037-044-045-052-053-010900-
   East Central Minnesota

CITY           SKY/WX    TMP DP  RH WIND       PRES   REMARKS
PRINCETON      CLOUDY    28  25  86 N12       29.78S WCI  18
MORA           CLOUDY    27  23  86 NE6       29.81R WCI  20
CAMBRIDGE      CLOUDY    30  21  69 N8        29.75S WCI  23
RUSH CITY      CLOUDY    27  23  84 N10G17    29.78R WCI  17
MOOSE LAKE     CLOUDY    27  23  86 NE6       29.79S WCI  20
HINCKLEY       CLOUDY    28  25  86 N10       29.79R WCI  19
CLOQUET        CLOUDY    25  18  74 NE9G18    29.80R WCI  15
MCGREGOR       CLOUDY    28  23  80 N8        29.82R WCI  20
$$
MNZ071>073-080-081-089-090-097-098-010900-
   Southwest Minnesota

CITY           SKY/WX    TMP DP  RH WIND       PRES   REMARKS
MONTEVIDEO     CLOUDY    30  28  93 N12       29.83R WCI  21
GRANITE FALLS  CLOUDY    33  29  86 NW8       29.82R WCI  26
CANBY          CLOUDY    27  25  93 W13       29.84R WCI  16
MARSHALL       FLURRIES  29  27  92 NW16      29.80R WCI  17
REDWOOD FALLS  CLOUDY    33  27  78 N9        29.77S WCI  25
OLIVIA         CLOUDY    32  28  86 N14       29.76F WCI  22
PIPESTONE      LGT SNOW  30  25  80 N9        29.77S WCI  22
WINDOM         CLOUDY    32  30  93 N17G25    29.73S WCI  21
WORTHINGTON    LGT SNOW  30  29  96 N16       29.74S FOG     WCI  19
JACKSON        CLOUDY    32  30  93 N12G21    29.72S WCI  23
TRACY          LGT SNOW  32  31  97 NW12      29.78R WCI  23
SLAYTON        LGT SNOW  29  28  96 NW13      29.77R WCI  19
$$
MNZ065>067-074>077-082>085-091>093-010900-
   South Central Minnesota

CITY           SKY/WX    TMP DP  RH WIND       PRES   REMARKS
MANKATO          N/A     31  28  89 N17       29.72S WCI  19
NEW ULM        CLOUDY    30  27  86 N8G16     29.74S WCI  23
ST JAMES       CLOUDY    30  28  93 N12       29.75S WCI  21
FAIRMONT       CLOUDY    31  30  96 N16       29.71F WCI  20
GLENCOE        CLOUDY    31  28  90 N12G18    29.74S WCI  22
FARIBAULT      MIX PCPN  30  30 100 N8        29.69F WCI  23
WASECA         CLOUDY    32  30  93 N12       29.71S FOG     WCI  23
ALBERT LEA     CLOUDY    32  30  93 N13       29.65F WCI  22
$$
MNZ078>079-086>088-094>096-010900-
   Southeast Minnesota

CITY           SKY/WX    TMP DP  RH WIND       PRES   REMARKS
ROCHESTER      FRZ RAIN  32  32 100 N15       29.62S VSB 3/4 WCI  22
RED WING       MIX PCPN  34  28  80 N6        29.68S WCI  29
STANTON        CLOUDY    32  29  90 N14       29.69R FOG     WCI  22
WINONA         CLOUDY    36  34  93 N3        29.64R
AUSTIN         MIX PCPN  32  30  93 N10       29.64S WCI  24
PRESTON        CLOUDY    32  32  99 N12G17    29.60F FOG     WCI  23
$$
ABBREVIATIONS USED IN REMARKS
   TC - TEMPERATURES IN CELSIUS
  WCI - WIND CHILL INDEX
   HX - HEAT INDEX
  VSB - VISIBILITY
$$



USA.gov is the U.S. government's official web portal to all federal, state and local government web resources and services.